Time,TemperatureF,DewpointF,PressureIn,WindDirection,WindDirectionDegrees,WindSpeedMPH,WindSpeedGustMPH,Humidity,HourlyPrecipIn,Conditions,Clouds,dailyrainin,SolarRadiationWatts/m^2,SoftwareType,DateUTC
2013-09-08 18:00:00,90.1,72.8,29.90,South,171,3.0,3.0,57,0.00,,,0.01,197,Wunderground v.1.15,2013-09-08 23:00:00,
2013-09-08 18:05:00,90.1,72.8,29.90,SSE,155,1.0,3.0,57,0.00,,,0.01,118,Wunderground v.1.15,2013-09-08 23:05:00,
2013-09-08 18:10:00,90.0,72.2,29.90,SSE,163,1.0,1.0,56,0.00,,,0.01,86,Wunderground v.1.15,2013-09-08 23:10:00,
2013-09-08 18:15:00,90.0,72.2,29.89,SSE,167,1.0,1.0,56,0.00,,,0.01,144,Wunderground v.1.15,2013-09-08 23:15:00,
2013-09-08 18:25:00,89.3,74.1,29.89,SE,130,1.0,2.0,61,0.00,,,0.01,60,Wunderground v.1.15,2013-09-08 23:25:00,
2013-09-08 18:30:00,88.8,74.6,29.90,SSE,151,1.0,2.0,63,0.00,,,0.01,40,Wunderground v.1.15,2013-09-08 23:30:00,
2013-09-08 18:35:00,88.2,74.5,29.90,SE,142,1.0,2.0,64,0.00,,,0.01,35,Wunderground v.1.15,2013-09-08 23:35:00,
2013-09-08 18:45:00,87.2,74.5,29.91,SSE,158,2.0,5.0,66,0.00,,,0.01,23,Wunderground v.1.15,2013-09-08 23:45:00,
2013-09-08 18:55:00,86.4,74.6,29.91,SSE,167,1.0,2.0,68,0.00,,,0.01,16,Wunderground v.1.15,2013-09-08 23:55:00,
2013-09-08 19:00:00,86.0,74.6,29.91,SSE,167,0.0,0.0,69,0.00,,,0.01,16,Wunderground v.1.15,2013-09-09 00:00:00,
2013-09-08 19:05:00,85.5,75.0,29.91,SW,225,2.0,2.0,71,0.00,,,0.01,12,Wunderground v.1.15,2013-09-09 00:05:00,
2013-09-08 19:15:00,84.3,75.9,29.91,South,175,3.0,4.0,76,0.00,,,0.01,11,Wunderground v.1.15,2013-09-09 00:15:00,
2013-09-08 19:20:00,83.9,75.5,29.92,SSW,196,2.0,2.0,76,0.00,,,0.01,7,Wunderground v.1.15,2013-09-09 00:20:00,
2013-09-08 19:25:00,83.5,75.5,29.92,SSW,208,2.0,2.0,77,0.00,,,0.01,5,Wunderground v.1.15,2013-09-09 00:25:00,
2013-09-08 19:30:00,83.1,75.5,29.92,SSW,209,1.0,1.0,78,0.00,,,0.01,0,Wunderground v.1.15,2013-09-09 00:30:00,
2013-09-08 19:35:00,82.8,75.6,29.92,SSW,207,1.0,1.0,79,0.00,,,0.01,0,Wunderground v.1.15,2013-09-09 00:35:00,
2013-09-08 19:45:00,82.3,75.1,29.92,South,171,1.0,4.0,79,0.00,,,0.01,0,Wunderground v.1.15,2013-09-09 00:45:00,
2013-09-08 19:50:00,82.1,74.9,29.92,South,173,1.0,1.0,79,0.00,,,0.01,0,Wunderground v.1.15,2013-09-09 00:50:00,
2013-09-08 20:00:00,81.7,74.9,29.92,South,184,0.0,0.0,80,0.00,,,0.01,0,Wunderground v.1.15,2013-09-09 01:00:00,
2013-09-08 20:10:00,81.2,74.4,29.92,SSW,205,0.0,2.0,80,0.00,,,0.01,0,Wunderground v.1.15,2013-09-09 01:10:00,
2013-09-08 20:15:00,81.0,74.6,29.92,SW,217,2.0,2.0,81,0.00,,,0.01,0,Wunderground v.1.15,2013-09-09 01:15:00,
2013-09-08 20:20:00,80.8,74.4,29.92,SW,215,1.0,1.0,81,0.00,,,0.01,0,Wunderground v.1.15,2013-09-09 01:20:00,
2013-09-08 20:25:00,80.6,74.2,29.92,South,170,0.0,1.0,81,0.00,,,0.01,0,Wunderground v.1.15,2013-09-09 01:25:00,
2013-09-08 20:35:00,80.2,74.2,29.92,SSW,200,1.0,1.0,82,0.00,,,0.01,0,Wunderground v.1.15,2013-09-09 01:35:00,
2013-09-08 20:40:00,80.0,74.0,29.92,South,171,0.0,2.0,82,0.00,,,0.01,0,Wunderground v.1.15,2013-09-09 01:40:00,
2013-09-08 20:45:00,79.8,73.8,29.92,South,171,0.0,2.0,82,0.00,,,0.01,0,Wunderground v.1.15,2013-09-09 01:45:00,
2013-09-08 20:50:00,79.6,74.0,29.93,South,178,0.0,0.0,83,0.00,,,0.01,0,Wunderground v.1.15,2013-09-09 01:50:00,
2013-09-08 21:00:00,79.2,73.9,29.92,SW,221,1.0,1.0,84,0.00,,,0.01,0,Wunderground v.1.15,2013-09-09 02:00:00,
2013-09-08 21:05:00,79.0,73.7,29.92,SW,220,0.0,1.0,84,0.00,,,0.01,0,Wunderground v.1.15,2013-09-09 02:05:00,
2013-09-08 21:10:00,78.8,73.6,29.93,SW,220,0.0,2.0,84,0.00,,,0.01,0,Wunderground v.1.15,2013-09-09 02:10:00,
2013-09-08 21:15:00,78.7,73.8,29.93,SW,220,0.0,2.0,85,0.00,,,0.01,0,Wunderground v.1.15,2013-09-09 02:15:00,
2013-09-08 21:25:00,78.4,73.5,29.93,SW,215,1.0,1.0,85,0.00,,,0.01,0,Wunderground v.1.15,2013-09-09 02:25:00,
2013-09-08 21:30:00,78.2,73.3,29.93,SW,215,0.0,0.0,85,0.00,,,0.01,0,Wunderground v.1.15,2013-09-09 02:30:00,
2013-09-08 21:35:00,78.1,73.6,29.93,SW,215,0.0,0.0,86,0.00,,,0.01,0,Wunderground v.1.15,2013-09-09 02:35:00,
2013-09-08 21:45:00,77.8,73.6,29.93,SW,215,0.0,0.0,87,0.00,,,0.01,0,Wunderground v.1.15,2013-09-09 02:45:00,
2013-09-08 21:55:00,77.3,73.1,29.93,SW,215,0.0,0.0,87,0.00,,,0.01,0,Wunderground v.1.15,2013-09-09 02:55:00,
2013-09-08 22:00:00,77.1,73.3,29.93,SW,215,0.0,0.0,88,0.00,,,0.01,0,Wunderground v.1.15,2013-09-09 03:00:00,
2013-09-08 22:05:00,76.9,73.1,29.93,SW,215,0.0,0.0,88,0.00,,,0.01,0,Wunderground v.1.15,2013-09-09 03:05:00,
2013-09-08 22:10:00,76.5,73.0,29.93,SW,215,0.0,0.0,89,0.00,,,0.01,0,Wunderground v.1.15,2013-09-09 03:10:00,
2013-09-08 22:20:00,76.0,72.9,29.93,SW,215,0.0,0.0,90,0.00,,,0.01,0,Wunderground v.1.15,2013-09-09 03:20:00,
2013-09-08 22:25:00,75.7,72.6,29.93,SW,215,0.0,0.0,90,0.00,,,0.01,0,Wunderground v.1.15,2013-09-09 03:25:00,
2013-09-08 22:30:00,75.5,72.4,29.93,SW,215,0.0,0.0,90,0.00,,,0.01,0,Wunderground v.1.15,2013-09-09 03:30:00,
2013-09-08 22:35:00,75.3,72.5,29.93,SW,215,0.0,0.0,91,0.00,,,0.01,0,Wunderground v.1.15,2013-09-09 03:35:00,
2013-09-08 22:40:00,75.2,72.4,29.93,SW,215,0.0,0.0,91,0.00,,,0.01,0,Wunderground v.1.15,2013-09-09 03:40:00,
2013-09-08 22:50:00,75.0,72.2,29.93,SW,215,0.0,0.0,91,0.00,,,0.01,0,Wunderground v.1.15,2013-09-09 03:50:00,
2013-09-08 23:00:00,74.6,72.1,29.93,SW,215,0.0,0.0,92,0.00,,,0.01,0,Wunderground v.1.15,2013-09-09 04:00:00,
2013-09-08 23:10:00,74.4,71.9,29.93,SW,215,0.0,0.0,92,0.00,,,0.01,0,Wunderground v.1.15,2013-09-09 04:10:00,
2013-09-08 23:25:00,74.3,72.1,29.93,SW,215,0.0,0.0,93,0.00,,,0.01,0,Wunderground v.1.15,2013-09-09 04:25:00,
2013-09-08 23:30:00,74.2,72.0,29.93,SW,215,0.0,0.0,93,0.00,,,0.01,0,Wunderground v.1.15,2013-09-09 04:30:00,
2013-09-08 23:45:00,73.8,71.6,29.93,SW,215,0.0,0.0,93,0.00,,,0.01,0,Wunderground v.1.15,2013-09-09 04:45:00,
2013-09-08 23:55:00,73.5,71.4,29.93,SW,215,0.0,0.0,93,0.00,,,0.01,0,Wunderground v.1.15,2013-09-09 04:55:00,